Location: Newark
(44.2700°N, 7.5000°E)
Time: 13:47:17
(UTC+00:00)

X-37B - Visible Passes

Search period start: 23 September 2020 00:00
Search period end: 03 October 2020 00:00
Orbit: 386 x 387 km, 45.0° (Epoch: 18 September)

Date Brightness Start Highest point End Pass type
(mag) Time Alt. Az. Time Alt. Az. Time Alt. Az.
23 Sep 1.7 03:23:00 37° SE 03:23:00 37° SE 03:25:09 10° ESE visible
24 Sep 1.8 03:59:50 25° SSW 03:59:50 25° SSW 04:02:31 10° SSE visible
01 Oct 2.8 18:33:04 10° S 18:34:08 14° SSE 18:34:08 14° SSE visible
02 Oct 2.9 19:09:49 10° SW 19:10:54 19° SW 19:10:54 19° SW visible
